Terminal Aerodrome Forecast
Issued by NWS

Home | Current Version | Previous Version | Text Only | Print | Product List | Glossary On
Versions: 1 2 3 4 5 6 7 8 9 10 11 12
000
FTUS45 KVEF 281700
TAFHND
TAF
KHND 281730Z 2818/2918 VRB05KT P6SM FEW250
     FM290100 16007KT P6SM FEW250
     FM290800 19012KT P6SM FEW250=

USA.gov is the U.S. government's official web portal to all federal, state and local government web resources and services.